Theta_e
273 274 274 275 275 274 274 274 275 275 275 274 274 274 274 274 275 275 275 275 275 275 276 276 276 277 277 277 277 277 277 277 277 277 278 277 277 277 277 277 277 277 277 277 277 277 277 277 277 277 277 277 277 276 277 277 276 276 276 276 276 276 275 275 276 276 276 277 277
273 274 274 275 275 274 274 274 275 275 275 274 275 275 275 275 275 275 275 275 276 276 276 276 277 277 277 277 277 277 277 277 277 277 277 277 277 277 277 277 277 277 277 277 277 277 277 277 277 277 277 277 277 277 277 277 277 276 276 276 276 276 276 275 276 276 276 277 277
273 273 274 274 274 273 273 274 274 274 274 275 275 275 275 275 275 275 276 276 276 276 276 276 277 277 277 277 277 277 277 277 277 277 277 277 277 277 277 277 277 277 277 277 277 277 277 277 277 277 277 277 277 277 277 277 277 277 276 276 276 275 275 275 276 277 277 277 277
273 273 273 273 273 273 273 273 274 274 274 274 275 275 275 276 276 276 276 276 276 276 276 276 276 277 277 277 277 277 277 277 277 277 277 277 277 277 277 277 277 277 277 277 277 277 277 277 277 277 277 277 277 277 277 277 277 276 276 276 276 276 275 276 276 277 277 277 277
273 273 273 273 273 273 274 274 274 274 274 275 275 275 275 276 276 276 276 276 276 276 276 276 277 277 277 277 277 276 276 277 277 277 276 276 277 277 277 277 277 277 277 277 277 277 277 277 277 277 277 277 277 277 277 277 277 277 276 276 276 276 276 276 276 276 277 277 277
273 273 273 274 273 274 274 274 274 274 274 275 275 275 275 275 275 275 276 275 276 276 277 277 277 277 277 276 276 276 276 276 277 277 276 276 277 277 277 277 278 278 277 277 277 277 277 277 277 277 277 277 277 278 278 277 277 277 276 276 276 276 276 276 276 276 276 277 277
273 273 273 273 273 274 274 274 274 275 275 275 275 275 275 275 275 275 275 276 276 276 277 277 277 276 276 276 276 276 276 276 276 277 277 277 277 277 277 278 278 278 278 278 278 278 277 277 277 277 277 278 277 278 278 278 277 276 276 275 276 276 276 276 276 276 276 276 276
273 273 273 273 274 274 274 274 275 275 275 275 275 275 275 275 275 275 276 276 276 276 276 276 276 276 276 276 276 276 276 276 276 277 277 277 277 277 277 278 278 278 278 278 278 278 278 277 277 277 277 277 277 277 277 277 277 276 276 275 276 276 276 276 276 276 276 276 276
273 273 273 274 274 274 275 275 275 275 275 275 275 275 275 275 276 276 275 275 276 276 276 276 276 276 276 276 276 276 276 276 276 276 277 277 277 277 278 278 278 278 278 278 278 278 278 277 277 277 277 277 277 277 277 277 277 276 276 275 275 276 276 276 276 276 276 276 276
272 273 273 274 274 275 275 275 275 275 275 275 275 275 275 276 276 276 275 276 276 276 276 276 276 276 276 276 276 276 276 276 276 276 277 277 277 277 277 277 278 278 278 279 279 279 278 278 277 277 277 277 277 277 277 277 276 276 276 275 276 276 276 276 276 276 276 276 276
272 273 273 274 275 275 275 275 275 275 275 275 275 275 275 276 276 276 276 276 276 276 276 276 276 276 276 276 276 276 277 277 276 276 277 277 277 278 277 277 278 278 279 279 280 280 279 278 278 277 277 277 277 277 277 277 276 276 276 276 276 276 275 276 276 276 276 276 276
272 273 274 274 274 275 275 275 275 275 275 275 275 275 275 275 275 276 276 276 276 275 276 276 276 276 276 276 276 277 277 277 277 276 277 277 277 277 277 278 278 278 279 280 280 280 279 279 278 278 277 277 277 277 277 277 276 276 276 276 276 276 275 275 276 276 276 276 276
272 273 274 274 274 274 274 274 274 274 275 275 275 275 275 275 276 276 276 276 276 276 276 276 276 276 276 276 276 276 276 277 277 277 277 277 277 277 277 278 278 279 279 280 281 280 280 280 279 279 278 278 278 278 277 277 277 276 276 276 276 276 275 276 276 276 276 277 276
273 273 273 273 273 274 274 274 274 274 275 275 275 275 275 275 276 276 276 276 275 276 276 276 276 276 276 276 276 276 277 277 277 276 276 277 277 277 277 278 278 279 280 280 281 280 280 280 280 279 279 279 278 278 278 278 277 277 276 276 276 276 276 276 276 276 277 277 277
272 273 273 273 273 273 273 273 274 274 275 275 275 275 275 275 276 276 276 276 276 276 276 276 276 276 277 277 277 277 277 277 276 276 276 276 276 277 277 277 278 279 280 281 281 280 280 280 280 280 280 280 279 279 279 279 278 278 277 277 277 277 277 277 277 277 277 277 277
272 272 272 272 272 273 273 273 274 274 275 275 275 275 275 275 275 276 276 276 276 276 276 276 276 276 276 277 277 277 277 276 276 276 276 276 276 276 277 277 278 279 280 281 281 281 280 280 280 280 280 280 280 280 280 280 280 279 279 278 278 277 277 277 277 277 278 278 278
272 272 272 272 272 272 272 273 273 274 274 275 275 275 275 275 275 275 276 276 275 275 275 275 276 276 276 277 277 277 277 276 276 276 276 276 276 276 277 277 278 279 280 281 281 281 280 280 280 280 280 280 280 279 280 280 280 280 280 280 279 278 278 278 278 278 278 278 279
271 272 272 272 272 272 272 273 273 274 274 275 275 275 275 275 275 275 275 276 275 275 275 275 276 276 276 276 276 277 277 276 276 276 276 276 276 276 277 277 278 279 280 281 281 281 280 280 280 280 280 279 279 279 279 279 279 280 280 280 280 280 280 279 279 279 279 279 281
271 271 271 272 272 272 272 273 274 274 274 275 275 275 275 275 275 275 275 275 275 275 275 275 275 276 276 276 276 276 277 276 276 276 276 276 277 277 277 278 278 279 280 281 281 281 280 280 280 280 279 279 279 279 279 279 279 279 279 280 280 281 281 282 281 281 281 282 283
271 271 271 271 272 272 272 273 274 274 274 275 275 275 274 275 275 275 275 275 275 275 275 275 275 275 276 276 276 276 276 276 276 276 276 276 277 277 277 278 278 279 280 281 282 281 280 280 279 279 279 279 278 278 278 278 279 279 279 279 279 280 281 282 282 282 282 283 283
271 271 271 271 272 272 273 273 274 274 275 275 275 274 274 275 275 275 275 275 275 275 275 275 275 275 276 276 276 276 276 276 276 276 276 276 277 277 277 278 278 279 280 282 282 282 280 279 279 278 278 278 278 278 278 278 278 278 278 278 279 279 280 281 281 282 282 282 282
271 271 271 272 272 272 273 274 274 274 275 275 275 275 274 274 274 275 275 275 275 275 275 275 276 276 276 276 276 276 276 276 276 276 276 276 276 277 277 278 278 279 280 282 282 281 280 279 278 277 277 278 278 278 278 278 277 277 278 278 278 278 279 279 280 281 281 281 281
271 271 272 272 272 273 274 274 274 274 274 274 274 274 274 274 274 275 275 275 275 275 275 276 276 276 276 276 276 276 276 276 276 276 276 276 276 277 277 278 278 278 280 282 282 281 280 278 277 277 277 277 277 277 277 277 277 277 277 277 277 277 277 278 279 279 280 281 281
271 271 272 272 272 273 273 274 274 274 274 274 274 274 274 274 274 275 275 275 275 275 275 276 276 276 277 277 277 276 276 276 276 276 276 276 276 277 277 278 278 278 280 283 282 282 281 279 278 277 276 276 276 277 277 277 277 276 276 276 276 276 276 277 277 278 279 280 281
271 271 272 272 272 273 273 274 274 274 274 274 274 274 274 274 274 274 274 275 275 275 275 276 276 276 277 277 276 276 276 276 275 276 276 276 276 276 277 277 277 278 281 283 284 284 283 282 279 277 276 275 276 276 276 276 276 276 276 276 275 275 276 276 277 277 278 279 280
270 271 271 272 272 273 273 273 273 274 274 274 274 274 274 274 274 274 274 274 274 275 275 276 276 276 277 276 276 275 275 275 276 275 276 275 276 276 276 277 276 278 281 284 285 285 284 284 282 279 277 275 275 275 276 276 276 276 275 275 275 275 275 275 276 276 277 278 280
270 270 271 271 272 272 273 273 273 273 274 274 274 273 274 274 274 274 274 274 274 275 275 276 276 276 277 276 275 275 275 275 275 275 276 276 276 276 276 277 276 277 281 285 285 285 285 284 283 281 278 275 275 275 275 275 275 275 275 275 275 275 274 274 275 276 276 277 279
269 270 270 271 271 272 272 273 273 273 273 273 273 273 273 273 274 273 273 274 274 274 275 276 276 276 276 275 275 275 275 275 275 275 276 276 276 276 276 277 276 278 282 287 286 285 285 284 283 282 280 277 275 275 275 275 275 275 275 274 274 274 274 274 275 275 276 276 278
269 269 270 270 271 272 272 273 273 273 273 273 273 273 273 273 273 273 273 273 274 274 275 276 276 275 275 275 275 275 275 275 275 275 275 275 276 276 276 277 276 278 282 287 286 285 284 284 283 282 281 279 276 275 275 275 275 275 274 274 274 274 274 274 274 275 275 275 277
268 269 269 270 271 271 272 272 273 273 273 273 273 273 273 273 273 273 273 273 273 274 275 276 275 275 274 274 275 275 275 275 275 275 275 275 275 276 276 277 276 278 281 287 286 285 284 284 283 282 281 279 276 275 274 275 274 274 274 274 274 274 274 274 274 274 275 275 276
267 268 269 270 271 271 272 272 272 273 273 272 272 272 272 272 272 273 273 273 274 275 276 275 275 274 274 275 275 275 275 275 275 275 275 275 275 275 276 277 276 278 281 286 286 285 284 284 283 282 281 280 277 275 274 274 274 274 274 274 274 274 274 274 274 274 274 275 276
268 268 269 270 271 271 272 272 272 272 272 272 272 272 272 272 272 273 273 274 275 275 275 274 274 274 274 274 274 274 274 275 275 275 275 275 275 275 276 277 277 278 281 285 286 286 285 284 283 282 282 280 278 275 274 274 274 274 274 274 274 274 274 274 274 274 274 275 276
268 269 269 270 270 271 272 272 272 272 272 272 272 272 272 272 272 273 273 274 275 275 274 274 273 273 273 274 274 274 274 275 275 275 275 275 275 275 276 277 277 279 282 284 286 286 285 284 283 283 282 280 278 276 275 274 274 274 274 274 274 274 274 274 274 274 274 275 276
269 269 269 270 270 271 271 272 272 272 271 271 271 271 272 272 272 272 273 274 275 275 274 274 274 273 273 274 274 274 275 276 275 275 275 275 275 275 276 276 277 279 282 284 285 286 285 284 283 282 282 280 278 276 275 274 274 274 274 274 274 274 274 274 274 274 274 274 276
269 269 270 270 271 271 271 272 272 271 271 271 271 271 271 272 272 272 273 274 275 275 274 274 274 274 274 274 274 274 275 275 274 274 275 275 275 275 275 276 277 279 282 283 284 285 285 284 283 282 281 279 277 276 275 275 274 274 274 274 274 274 274 274 274 274 274 274 276
270 270 270 270 271 271 271 271 271 271 271 270 271 271 271 271 272 272 273 275 275 274 274 274 274 274 274 274 274 275 275 274 274 274 275 275 275 275 275 276 276 278 281 283 284 285 286 285 283 282 281 278 277 276 276 275 275 274 274 274 274 274 274 274 274 274 274 274 276
270 270 270 270 271 271 271 271 271 271 270 270 270 271 271 271 272 272 273 275 274 273 273 273 273 273 273 274 274 275 275 274 274 274 275 275 275 275 276 276 276 277 279 282 283 284 285 285 283 282 280 278 277 276 276 276 275 275 274 274 273 274 274 274 275 274 274 274 276
270 270 270 270 271 271 271 271 271 270 270 270 270 271 271 271 272 272 273 274 273 272 272 273 273 273 273 274 275 275 275 275 275 275 275 275 275 276 276 277 276 276 278 281 283 284 285 285 284 282 280 277 277 276 276 276 275 275 274 274 274 274 274 274 275 275 275 275 277
271 271 270 270 271 271 271 271 270 270 270 270 270 271 271 271 272 273 273 274 273 272 272 272 273 273 274 275 275 275 275 275 275 275 275 275 276 277 277 276 276 276 277 280 283 284 285 286 285 283 280 277 277 277 276 276 275 275 274 274 274 274 274 274 275 275 275 275 278
271 271 271 271 271 271 271 271 270 270 270 270 270 270 271 272 272 273 273 273 272 272 272 272 273 273 274 276 275 275 275 275 275 275 275 276 276 277 278 276 275 275 277 280 282 284 284 285 285 284 281 277 276 276 277 276 275 274 274 274 274 274 274 274 274 275 275 276 277
271 271 271 271 271 271 271 271 270 270 270 270 270 271 272 273 272 272 272 272 272 272 272 273 273 273 274 275 275 275 274 275 275 275 275 276 276 277 277 275 275 275 276 279 282 283 284 285 285 285 283 278 276 276 277 276 275 274 274 273 273 273 273 273 274 274 275 275 276
Wind_Speed
7 7 7 7 6 6 6 5 6 6 6 6 6 7 7 7 7 7 7 8 8 8 9 9 10 11 14 17 17 18 18 18 19 20 20 20 20 19 19 18 18 17 17 17 17 15 14 14 12 10 9 9 9 10 10 9 10 10 11 10 10 10 11 12 12 12 13 13 11
8 7 7 7 7 6 5 5 6 6 6 6 6 6 7 7 7 8 8 8 8 9 9 9 11 13 16 18 17 17 18 19 20 20 20 20 20 20 19 18 18 18 18 18 17 15 13 13 12 10 9 9 9 10 10 9 10 10 11 12 10 9 9 10 11 11 12 12 10
7 7 7 7 7 6 6 6 6 7 7 7 6 6 7 7 7 7 8 9 10 10 10 10 12 14 16 17 17 17 17 18 20 20 19 19 19 20 19 18 19 19 19 18 16 15 13 13 12 10 9 9 9 10 10 10 10 10 10 11 9 8 8 8 9 10 9 8 9
7 7 7 7 8 7 7 6 7 8 7 6 7 7 7 7 7 8 9 10 11 11 10 11 12 13 15 16 18 18 18 19 20 20 19 19 19 20 20 19 19 19 18 18 17 16 16 14 11 10 9 10 11 11 10 9 9 9 8 8 8 8 8 8 8 8 7 7 8
8 7 7 7 8 8 7 7 8 8 7 6 6 7 7 7 8 8 9 10 10 11 12 14 13 13 14 16 19 20 20 20 20 19 18 19 20 20 19 20 19 18 18 17 17 17 16 15 11 9 9 10 9 9 9 10 10 9 8 7 7 7 7 8 7 7 7 7 7
8 8 8 7 8 8 7 7 9 8 7 6 7 8 8 8 8 9 10 11 11 13 14 15 14 14 15 17 18 19 19 18 18 18 19 20 19 20 20 20 19 18 17 16 17 16 15 13 10 8 8 9 9 9 10 11 9 9 8 7 7 7 7 8 7 7 8 9 9
8 8 8 8 8 8 8 8 8 8 8 7 8 10 10 10 11 12 13 12 12 12 13 13 13 14 16 17 17 18 18 18 18 19 20 19 20 21 21 20 19 18 17 16 16 15 13 11 9 8 8 8 8 9 10 10 9 9 8 8 7 7 7 8 8 7 8 11 12
8 8 8 8 8 8 9 9 9 8 8 7 9 10 12 12 13 14 13 13 12 12 12 12 14 16 17 17 17 17 18 19 19 19 19 19 21 21 21 20 20 19 18 17 15 14 12 10 8 8 8 8 7 8 9 10 10 10 10 10 8 8 7 8 7 8 9 11 13
8 8 8 8 8 8 9 10 10 9 9 9 10 11 12 13 14 14 13 12 12 12 13 12 15 16 17 17 17 17 17 17 18 19 20 20 21 21 21 20 20 19 18 17 15 13 11 8 7 7 7 7 7 8 10 11 11 11 11 10 9 9 9 8 8 9 10 11 12
8 8 8 8 8 9 9 10 10 10 10 10 11 11 12 13 13 13 12 11 12 13 13 13 15 16 17 17 17 16 16 16 17 18 20 20 21 21 21 19 20 20 19 17 14 12 10 7 7 7 8 8 9 10 11 12 12 11 11 9 9 10 10 10 10 10 11 11 12
9 9 8 8 9 10 10 10 10 10 10 10 11 11 12 12 12 12 12 12 13 14 15 14 15 16 16 15 15 16 16 16 17 18 19 21 21 21 21 20 20 20 20 18 14 11 8 6 7 8 9 9 10 11 11 12 12 12 11 10 10 11 12 12 11 10 10 11 12
8 8 8 9 10 10 10 10 9 9 10 10 11 11 11 11 12 13 13 13 14 14 14 14 15 15 15 14 15 15 16 17 17 18 19 20 21 21 21 21 21 21 19 17 14 11 8 8 8 9 9 10 8 8 9 11 11 11 11 11 11 11 11 12 11 10 9 9 11
8 8 9 9 10 10 10 9 9 9 10 10 11 11 11 11 12 13 13 14 14 13 13 14 14 14 14 14 14 15 16 16 17 18 19 20 21 21 21 21 22 20 18 15 14 13 11 11 10 10 9 9 8 8 9 10 10 10 11 11 11 11 11 11 10 10 9 10 10
8 8 9 9 10 9 9 9 8 9 9 11 11 11 11 11 12 12 12 13 13 13 13 13 13 13 13 15 15 16 16 16 17 18 19 20 21 21 21 21 22 19 16 13 14 15 15 14 13 12 11 10 9 8 8 9 9 9 10 10 10 10 10 10 10 9 9 9 10
8 9 9 9 9 9 9 9 8 8 9 10 11 11 10 10 11 11 12 12 13 12 12 12 12 13 14 15 16 16 16 16 17 18 19 20 21 22 22 21 22 19 15 13 14 15 16 15 15 14 13 13 12 10 9 8 7 8 8 9 9 9 9 9 9 8 8 9 10
8 9 9 9 9 9 9 8 8 8 9 10 11 11 10 10 10 11 12 12 12 11 12 13 13 13 13 15 15 16 16 16 17 17 18 19 21 22 22 22 22 19 16 12 14 15 15 15 14 14 15 15 14 14 13 11 8 7 6 7 7 7 8 8 8 8 8 8 9
8 9 9 9 9 9 9 9 8 8 9 10 11 11 10 10 10 10 11 12 11 12 12 14 13 13 13 14 14 15 15 15 15 16 17 18 19 21 21 22 21 19 16 11 13 15 16 15 15 15 15 15 15 15 15 15 13 11 9 6 4 4 5 6 7 7 7 6 7
8 9 9 9 9 10 10 10 10 10 10 11 11 11 10 10 10 11 11 12 12 13 14 14 14 13 14 14 14 14 13 14 15 15 16 17 18 19 20 21 21 19 16 11 12 14 16 16 15 15 15 15 16 16 16 17 16 16 15 13 9 5 2 2 3 4 4 4 4
8 9 9 9 9 10 10 11 11 11 11 11 11 11 11 11 11 11 11 12 12 13 14 14 14 14 14 15 15 14 14 13 14 15 16 16 17 18 19 19 20 19 16 10 10 13 15 16 16 16 15 15 16 16 17 17 17 17 18 17 15 12 9 6 5 4 3 3 5
8 9 9 9 9 10 10 10 11 11 11 10 11 11 11 11 11 11 12 12 13 13 13 13 13 14 14 15 15 15 14 13 14 15 15 16 17 17 18 19 19 18 16 10 9 11 14 15 15 15 15 15 16 16 17 17 17 17 17 16 17 16 15 13 12 11 10 9 9
8 9 9 9 9 9 10 10 10 10 10 10 11 11 11 11 11 11 12 12 13 13 13 13 13 13 14 15 15 15 14 12 13 14 14 15 16 17 17 17 18 18 15 9 8 10 12 13 14 14 14 14 15 15 16 16 16 17 17 16 16 17 17 17 16 16 15 14 13
8 9 9 9 9 9 10 10 10 10 10 10 11 11 11 11 11 11 11 12 12 12 12 12 13 13 13 13 14 14 14 13 13 13 14 14 15 16 16 16 17 18 16 9 8 9 11 12 13 13 13 13 14 14 15 15 16 16 17 17 17 16 16 16 16 16 16 16 15
9 9 9 9 9 10 10 10 10 10 10 10 11 11 11 11 11 11 11 11 11 12 12 11 12 12 12 12 13 13 14 14 14 15 15 14 15 15 16 15 16 17 16 9 7 8 9 10 11 12 12 12 12 13 14 15 15 15 15 16 16 15 15 15 15 15 14 15 14
9 9 9 8 9 10 10 10 10 10 10 11 11 11 11 11 11 11 11 11 11 12 11 10 10 11 12 12 12 13 13 14 15 16 16 16 15 15 15 14 15 15 14 9 10 12 11 9 9 10 10 10 11 11 12 13 13 14 14 14 15 14 14 14 15 14 14 14 13
9 9 9 9 10 10 10 10 10 10 11 11 11 11 11 11 11 11 11 11 11 12 11 11 11 11 11 12 12 13 13 14 14 15 16 17 16 16 14 12 13 12 11 10 17 20 18 15 12 10 9 9 9 10 11 12 12 13 12 13 13 14 14 15 15 15 14 14 13
8 9 9 10 10 10 10 10 10 10 11 11 11 11 11 11 10 10 10 11 11 11 11 11 11 11 11 11 12 13 13 13 13 14 15 16 17 17 15 12 11 10 9 13 19 22 22 22 19 15 10 8 9 10 10 10 11 12 12 12 13 13 13 14 15 16 16 14 14
8 9 9 10 10 10 10 10 10 10 11 11 11 11 11 10 10 10 10 11 11 11 11 10 10 11 11 10 12 13 13 12 13 13 14 15 16 17 17 14 11 10 11 17 20 22 23 23 23 20 15 10 9 9 10 10 11 11 12 12 12 13 13 13 15 15 16 15 15
8 8 9 10 10 10 10 10 10 11 11 11 11 11 10 10 10 10 10 10 11 10 10 9 9 9 9 9 11 12 13 13 13 13 13 14 16 17 17 15 13 14 16 21 21 22 23 23 23 22 19 13 10 9 9 10 10 10 10 11 11 12 13 12 13 13 14 15 14
8 8 9 9 10 10 10 10 10 11 11 11 11 11 10 10 10 10 10 10 11 10 9 8 8 8 8 9 10 11 12 13 12 12 13 14 15 16 16 16 16 17 20 24 21 21 22 23 23 23 21 17 11 8 8 8 9 9 9 9 10 11 12 12 12 12 13 14 13
7 8 8 9 10 10 10 10 10 11 11 10 10 10 10 10 10 10 10 10 10 10 9 9 8 9 10 10 10 11 11 11 11 12 13 14 15 16 16 16 16 17 20 24 21 21 22 23 23 23 22 19 14 10 8 8 8 8 8 9 10 11 12 12 13 13 13 13 13
7 7 8 9 9 10 10 10 10 10 10 10 10 10 10 10 10 10 10 10 9 10 10 10 10 11 11 11 10 11 11 11 11 12 13 14 15 15 15 16 16 17 20 24 21 21 21 22 23 23 22 20 14 10 8 9 9 9 8 9 10 11 12 11 12 13 14 14 13
7 7 8 9 9 9 10 10 10 10 10 10 10 10 10 10 10 10 9 9 9 10 10 10 11 11 11 11 11 11 11 11 12 12 13 13 14 15 15 15 15 16 20 25 22 20 20 21 22 22 21 19 14 11 9 9 9 9 9 10 11 12 12 11 11 13 15 15 14
7 7 8 8 9 9 9 10 10 10 10 10 10 10 10 10 10 10 10 9 9 9 10 10 10 10 10 11 11 11 11 11 12 12 13 13 14 14 15 14 13 15 20 25 23 20 19 19 20 21 20 18 13 10 10 10 9 9 9 10 11 11 12 12 12 13 14 15 14
7 7 8 8 9 9 9 9 9 9 10 10 10 10 9 9 10 10 10 10 9 9 9 9 9 9 9 9 10 10 10 11 11 12 12 13 13 14 14 13 11 15 21 26 25 21 18 18 19 19 18 16 11 9 9 10 9 9 10 11 11 11 11 11 12 12 13 14 14
7 7 8 8 9 9 9 9 9 9 9 10 10 10 10 9 9 9 9 10 10 9 9 9 8 8 8 8 9 9 10 11 11 12 12 12 13 14 14 14 13 17 22 25 25 22 18 16 17 17 16 13 9 8 9 10 10 10 11 11 11 11 11 11 10 11 11 13 14
6 7 7 8 9 9 9 9 9 9 9 9 10 10 10 10 9 9 9 10 10 10 10 9 9 9 9 9 9 9 10 10 11 11 12 12 13 13 14 14 15 17 21 24 25 23 19 15 15 15 13 10 7 7 8 8 8 9 10 11 11 11 11 10 10 10 10 11 12
6 6 7 8 8 9 9 9 8 9 9 9 9 10 10 10 9 8 8 9 9 9 10 9 9 9 10 10 9 9 9 9 10 10 11 12 12 13 13 14 15 16 19 22 24 24 21 16 13 12 11 8 6 6 7 7 7 8 10 10 10 10 10 9 9 9 9 10 12
6 6 7 7 8 8 8 8 8 8 9 9 9 9 9 9 8 8 8 8 8 8 9 9 9 9 9 9 9 9 10 9 9 10 11 11 12 12 13 14 14 15 17 21 24 25 23 18 13 11 9 6 6 6 6 6 6 7 8 9 9 10 9 8 8 8 9 10 14
6 6 6 7 7 8 8 8 8 8 8 9 9 9 9 8 8 8 8 8 7 7 8 8 9 9 9 9 9 9 10 10 9 10 10 11 12 13 13 13 13 14 16 20 23 25 25 22 15 11 8 5 5 5 5 5 6 7 7 8 8 9 9 8 7 7 8 10 15
6 6 6 6 7 7 7 8 8 8 7 8 8 9 9 8 8 8 8 8 7 7 7 7 8 8 9 9 9 9 10 10 10 10 10 11 12 13 14 12 12 13 16 19 22 25 26 25 20 12 7 4 3 3 4 4 5 6 6 7 7 8 8 8 7 7 8 10 12
5 5 6 6 6 7 7 7 8 7 7 7 7 8 8 8 8 8 8 7 7 7 7 7 8 9 9 9 8 8 9 10 10 10 11 11 12 12 12 11 12 12 14 16 20 23 25 27 24 17 10 3 2 2 3 4 4 5 5 6 6 6 7 8 8 8 8 9 9
Wind_Direction
345 345 345 348 351 349 344 339 340 341 341 336 332 330 327 326 323 322 321 319 316 314 313 313 312 311 312 313 314 315 316 317 318 317 315 314 312 311 310 308 306 304 301 298 296 294 292 291 289 286 283 282 281 279 278 277 278 281 283 284 285 285 285 284 281 279 279 279 279
341 342 343 345 347 344 341 338 338 338 336 331 328 325 323 321 320 319 318 316 314 313 312 312 313 313 313 314 316 318 319 319 318 317 315 314 313 312 311 309 307 304 302 299 297 294 292 291 289 286 282 281 279 278 277 276 278 279 281 282 283 284 284 281 278 277 277 278 278
337 338 339 340 340 338 336 335 333 331 327 322 322 320 320 318 318 318 317 315 315 314 314 314 315 315 315 316 319 321 321 319 318 317 316 314 314 313 312 309 307 305 302 300 298 295 292 290 288 285 282 281 280 279 278 278 278 279 280 282 283 283 282 280 279 279 278 278 278
334 334 335 336 335 333 331 329 326 323 321 318 317 317 318 319 319 318 316 315 316 316 316 316 315 315 317 319 321 321 320 320 319 318 316 315 314 313 312 310 308 305 303 300 297 294 292 290 286 283 281 280 279 278 278 278 279 279 280 282 282 282 280 278 278 278 278 278 278
331 331 331 331 329 327 324 322 320 318 316 313 313 316 319 321 320 318 317 318 319 319 318 316 315 317 320 322 321 321 320 320 321 320 318 317 315 315 314 312 309 306 303 300 297 295 292 290 285 280 278 278 277 276 276 277 278 278 278 279 278 277 276 275 275 275 275 276 276
328 326 324 323 321 320 320 319 317 315 312 309 309 313 317 320 318 318 318 318 318 317 317 317 318 320 322 322 321 321 322 322 322 321 320 319 318 318 317 314 312 309 305 301 298 295 292 290 284 279 277 276 274 274 274 276 276 275 275 274 273 272 271 271 272 273 274 274 276
321 319 318 317 317 317 317 316 315 314 312 309 311 315 317 317 317 317 317 317 317 319 320 321 323 323 323 322 322 322 323 324 323 323 323 322 321 321 321 320 318 315 310 305 300 296 292 289 284 280 279 278 276 275 274 273 272 271 271 271 270 269 269 269 270 272 272 273 274
317 315 314 312 312 314 315 315 316 316 316 316 318 318 318 316 317 319 320 320 320 322 323 323 324 323 323 323 323 324 324 324 324 325 325 324 323 324 324 325 324 321 317 312 306 301 295 290 285 281 280 279 278 277 276 274 271 270 270 270 270 269 267 267 268 268 269 271 272
319 316 313 308 311 314 317 319 319 319 319 317 316 316 317 318 321 322 322 321 322 323 324 323 323 323 324 324 324 325 326 326 326 326 325 325 325 326 328 329 328 326 323 320 315 309 303 294 286 280 278 276 276 277 277 277 275 272 271 271 271 270 269 268 267 267 268 271 273
321 317 314 312 318 321 323 324 323 321 318 316 316 316 317 320 323 323 322 321 322 324 324 324 324 325 325 326 326 327 328 328 327 326 326 325 326 328 330 330 330 330 329 327 325 321 314 302 289 283 280 278 278 278 278 277 275 272 270 270 271 272 272 271 270 269 270 271 273
319 317 316 321 327 328 326 326 324 322 320 318 318 319 320 322 323 322 322 323 324 324 325 325 326 327 327 327 328 329 330 329 328 327 326 326 327 329 331 331 333 333 333 333 335 334 329 316 301 292 287 283 280 279 278 276 274 272 270 269 271 272 273 273 271 271 271 271 273
318 318 321 328 329 327 326 325 323 321 320 319 321 322 323 324 324 323 324 326 326 326 326 327 328 328 328 328 329 330 330 330 330 329 328 328 329 330 332 333 335 337 338 340 344 346 344 335 322 310 299 291 285 280 277 276 274 272 270 269 269 270 271 272 272 272 272 273 275
318 321 326 330 328 326 324 324 322 320 320 321 323 324 325 325 325 326 327 329 329 328 328 328 329 329 330 330 330 331 331 331 332 331 331 330 331 332 334 335 338 340 342 349 353 355 354 349 342 332 321 311 300 290 283 278 275 273 271 269 268 268 268 271 272 273 274 276 277
321 325 328 328 326 325 324 323 321 320 321 323 325 326 326 326 327 328 329 330 330 329 328 329 330 331 331 331 331 332 332 333 333 334 333 333 333 334 335 337 340 342 347 358 359 360 360 357 354 350 344 336 326 313 300 288 280 275 272 270 268 268 269 272 274 276 278 279 281
325 327 327 327 326 325 324 323 321 321 322 324 326 327 327 327 328 330 331 331 330 330 330 331 330 330 331 332 333 334 334 335 336 336 336 336 335 336 337 338 341 343 350 4 3 3 3 1 360 359 357 354 349 343 333 319 300 284 275 270 269 269 271 274 278 280 281 283 286
325 326 326 327 326 325 324 323 321 321 323 324 326 327 327 327 328 330 331 332 331 330 330 331 330 330 331 333 335 336 337 338 339 339 339 338 337 337 337 337 340 344 350 3 5 6 6 4 3 3 4 3 2 1 359 355 344 325 302 281 273 270 272 275 278 280 282 285 291
325 326 327 327 326 324 322 321 319 320 322 323 325 326 327 328 328 329 331 332 331 331 330 330 330 330 331 334 336 338 339 340 340 340 339 338 337 336 336 336 338 342 347 357 5 8 9 7 7 7 8 9 8 8 8 9 7 5 359 347 317 282 267 269 274 278 282 288 302
325 326 327 327 325 323 321 319 318 319 320 322 323 325 326 327 328 328 329 331 330 330 330 329 329 330 331 333 336 339 341 341 340 339 338 337 337 336 336 336 337 340 344 350 6 12 12 10 11 11 12 13 12 12 11 11 12 13 14 15 15 10 332 270 279 282 284 289 331
325 326 326 325 323 321 319 318 318 319 320 321 323 324 325 326 327 327 328 329 330 330 330 329 329 330 331 333 336 339 341 341 340 339 338 337 337 337 337 336 336 338 341 346 7 16 16 13 13 14 15 15 15 14 13 13 13 13 14 15 17 20 25 34 28 17 2 353 15
324 324 324 322 320 318 316 315 316 317 319 320 322 323 324 326 327 328 328 328 329 329 329 328 329 330 331 333 336 338 340 341 341 340 339 338 339 339 338 337 336 337 339 343 10 21 21 16 14 14 15 16 16 15 14 14 14 14 14 14 14 14 17 23 27 26 23 18 14
322 321 320 318 316 314 313 313 315 317 318 320 321 323 324 326 328 328 327 327 327 328 328 329 329 330 330 332 335 337 338 339 340 340 339 339 340 339 339 338 338 337 337 341 14 27 26 20 16 14 14 15 16 16 15 15 15 15 14 14 12 12 12 14 17 19 19 16 8
320 318 317 315 313 313 313 315 316 318 320 321 323 324 326 327 328 328 327 326 327 328 329 329 329 329 330 331 333 335 336 337 338 339 341 341 341 340 340 340 340 338 335 337 18 33 31 25 20 15 13 14 15 16 16 17 16 15 13 12 11 10 9 10 10 12 13 12 7
317 317 316 314 314 314 316 317 318 320 321 323 325 326 327 328 328 328 328 327 328 329 329 329 329 329 328 329 332 334 335 336 337 339 341 343 342 341 341 341 343 338 334 338 24 39 37 30 24 19 15 13 13 15 16 17 16 14 12 10 9 8 7 7 6 6 7 8 7
316 316 317 317 317 317 318 318 320 322 324 325 326 327 327 328 329 329 329 329 328 328 328 328 328 328 329 331 334 336 337 337 338 339 340 342 343 343 342 343 345 337 332 347 29 40 41 40 32 24 18 14 13 14 15 16 16 14 12 9 8 6 5 4 3 3 3 4 5
315 316 317 318 319 319 319 321 322 324 324 325 326 327 328 329 330 330 330 329 329 329 328 327 328 330 333 335 336 337 339 339 340 340 340 341 342 343 343 345 345 336 335 5 34 40 43 46 43 35 24 16 14 14 15 16 16 14 12 10 9 7 4 3 2 1 1 360 1
315 317 319 319 319 320 321 322 323 323 324 325 326 328 329 329 330 330 330 330 330 329 329 330 332 336 338 338 337 338 339 340 341 340 340 341 341 342 344 345 343 339 351 26 37 41 44 46 46 44 36 22 17 16 15 15 15 14 13 12 10 8 6 4 2 0 358 356 357
317 318 319 319 320 321 321 321 323 325 326 327 328 328 328 328 329 331 331 332 331 330 331 334 337 339 339 337 337 337 338 339 339 340 340 341 341 342 344 344 341 341 358 28 39 43 45 46 46 45 42 33 24 19 17 15 15 15 14 13 11 9 8 6 3 0 357 354 353
317 317 318 319 320 320 320 322 325 327 328 328 328 327 327 327 329 331 333 334 333 333 335 338 340 339 338 337 337 336 336 337 338 339 341 342 342 343 344 343 340 343 357 20 35 42 45 46 46 45 44 40 31 23 20 18 16 16 15 14 11 9 8 6 4 1 358 354 352
314 316 317 319 319 320 322 325 327 327 328 327 327 326 326 328 331 334 336 336 335 336 337 339 339 338 337 337 335 335 335 336 337 338 340 341 343 344 344 342 340 342 351 8 27 40 45 46 46 45 44 42 37 29 23 21 18 17 16 15 12 9 8 6 4 2 359 354 351
313 314 316 317 319 321 323 324 326 326 326 327 327 327 327 329 333 336 337 336 335 335 336 337 336 335 335 335 335 335 336 336 337 338 339 340 341 342 342 341 339 339 345 359 20 36 45 46 45 45 44 43 40 34 27 23 21 19 18 15 12 10 8 6 4 2 360 355 351
310 313 315 318 319 321 322 323 324 325 326 327 327 327 329 331 334 336 336 334 332 333 335 336 335 334 334 334 335 336 335 335 336 338 338 338 339 339 339 339 339 337 342 354 15 32 43 45 45 44 43 42 40 36 29 24 23 21 18 14 11 9 8 6 4 2 360 356 352
310 313 316 319 319 320 320 321 323 325 326 326 327 328 330 332 333 333 333 331 332 333 335 336 335 334 334 334 334 334 334 335 336 337 337 337 336 335 336 337 338 337 340 348 7 25 40 44 45 44 43 42 40 36 31 26 23 21 18 14 11 9 8 5 2 0 358 354 352
314 316 318 319 318 318 319 321 323 325 326 327 328 329 330 331 332 333 333 332 334 335 336 335 334 332 331 331 331 331 332 334 335 336 335 334 333 333 334 336 337 337 339 342 357 15 34 44 44 44 43 42 40 36 30 27 24 21 17 13 11 8 6 4 1 358 355 351 350
317 319 319 318 318 318 319 320 323 325 326 327 328 329 331 332 333 332 332 331 333 334 334 333 330 328 326 325 325 327 329 333 334 334 333 333 333 333 333 334 333 336 338 340 350 6 27 43 44 44 44 43 41 36 30 26 25 22 17 13 10 7 4 1 358 356 352 348 348
317 319 318 317 317 317 318 320 322 324 326 327 328 329 330 331 331 329 327 328 331 332 332 331 329 327 326 326 325 326 329 331 330 330 331 333 334 333 332 331 329 333 336 338 345 358 17 38 44 46 46 45 42 36 30 26 24 21 18 14 11 7 2 359 357 354 351 346 345
317 317 316 315 315 316 318 320 322 323 325 327 327 328 328 328 327 324 323 326 330 331 331 330 330 331 331 331 328 329 330 329 327 328 329 333 335 333 331 329 328 330 333 335 339 348 3 27 42 48 48 48 43 36 30 25 22 19 17 15 12 8 3 358 356 353 349 343 343
315 314 313 313 314 315 317 318 320 322 324 325 325 325 325 324 323 321 322 328 330 330 329 328 330 332 332 330 327 326 326 326 326 327 330 334 335 333 330 328 327 328 330 332 334 340 350 12 36 49 51 51 45 38 31 25 20 17 15 14 12 8 4 358 356 353 349 342 344
312 310 309 309 310 313 315 317 318 319 320 321 321 322 322 321 320 321 323 329 328 326 324 324 327 329 328 325 323 323 325 326 329 331 332 334 334 333 332 330 328 326 326 329 331 335 342 357 22 43 54 57 51 42 34 27 21 17 14 11 10 7 5 360 356 353 350 344 348
307 306 305 305 307 310 313 315 314 315 315 317 319 320 321 320 320 321 324 326 323 319 317 318 322 324 325 325 326 327 328 329 332 334 335 335 333 334 335 334 329 326 325 327 330 332 336 343 0 26 53 62 57 48 39 31 24 19 15 11 8 5 4 1 356 353 350 346 349
302 303 303 303 306 308 311 312 310 309 310 313 316 317 319 319 319 320 322 321 318 315 314 315 319 322 325 329 331 331 330 331 333 335 336 335 334 336 337 336 329 325 324 326 329 331 332 334 344 1 33 67 61 52 45 37 27 22 17 12 7 4 1 359 356 353 350 346 348
298 301 304 306 306 308 308 308 306 305 306 309 310 312 315 318 319 319 320 319 319 318 317 319 322 324 326 330 332 332 331 330 331 332 333 334 333 335 336 334 328 324 324 325 328 330 331 331 334 343 0 68 68 59 51 43 33 24 18 12 8 5 1 357 355 354 351 348 347